START_TIME,STEP,MOV.,H8,t_acc.,H43,t_acc.,M25,t_acc.,H9,t_acc.
1979-07-02 03:00:30.420 ,1,0,0.,12.0,0.,12.0,0.,12.0,0.,12.0
1979-07-02 03:00:42.420 ,1,0,0.,12.0,0.,12.0,0.,12.0,0.,12.0
1979-07-02 03:00:54.420 ,2,0,0.,12.0,0.,12.0,0.,12.0,0.,12.0
1979-07-02 03:01:06.420 ,2,0,0.,12.0,0.,12.0,0.,12.0,0.,12.0
1979-07-02 03:01:18.420 ,2,0,0.,12.0,0.,12.0,0.,12.0,0.,12.0
1979-07-02 03:01:30.420 ,2,0,0.,12.0,0.,12.0,0.,12.0,0.,12.0
1979-07-02 03:01:42.420 ,3,0,0.,12.0,0.,12.0,0.,12.0,0.,12.0
1979-07-02 03:01:54.420 ,3,0,0.,12.0,0.,12.0,0.,12.0,0.,12.0
1979-07-02 03:02:06.420 ,3,0,0.,12.0,0.,12.0,0.,12.0,0.,12.0
1979-07-02 03:02:18.420 ,3,0,0.,12.0,0.,12.0,0.,12.0,0.,12.0
1979-07-02 03:02:30.420 ,4,0,0.,12.0,0.,12.0,0.,12.0,0.,12.0
1979-07-02 03:02:42.420 ,4,0,0.,12.0,0.,12.0,0.,12.0,0.,12.0
1979-07-02 03:02:54.420 ,4,0,0.,12.0,0.,12.0,0.,12.0,0.,12.0
1979-07-02 03:03:06.420 ,4,0,0.,12.0,0.,12.0,0.,12.0,0.,12.0
1979-07-02 03:03:18.420 ,5,0,0.,12.0,0.,12.0,0.,12.0,0.,12.0
1979-07-02 03:03:30.420 ,5,0,0.,12.0,0.,12.0,0.,12.0,0.,12.0
1979-07-02 03:03:42.420 ,5,0,0.,12.0,0.,12.0,0.,12.0,0.,12.0
1979-07-02 03:03:54.420 ,5,0,0.,12.0,0.,12.0,0.,12.0,0.,12.0
1979-07-02 03:04:06.420 ,6,0,0.,12.0,0.,12.0,0.,12.0,0.,12.0
1979-07-02 03:04:18.420 ,6,0,0.,12.0,0.,12.0,0.,12.0,0.,12.0
1979-07-02 03:04:30.420 ,6,0,0.,12.0,0.,12.0,0.,12.0,0.,12.0
1979-07-02 03:04:42.420 ,6,0,0.,12.0,0.,12.0,0.,12.0,0.,12.0
1979-07-02 03:04:54.420 ,7,0,0.,12.0,0.,12.0,0.,12.0,0.,12.0
1979-07-02 03:05:06.420 ,7,0,0.,12.0,0.,12.0,0.,12.0,0.,12.0
1979-07-02 03:05:18.420 ,7,0,0.,12.0,0.,12.0,0.,12.0,0.,12.0
1979-07-02 03:05:30.420 ,7,0,0.,12.0,0.,12.0,0.,12.0,0.,12.0
1979-07-02 03:05:42.420 ,7,0,0.,12.0,0.,12.0,0.,12.0,0.,12.0
1979-07-02 03:05:54.420 ,7,0,0.,12.0,0.,12.0,0.,12.0,0.,12.0
1979-07-02 03:06:06.420 ,7,0,0.,12.0,0.,12.0,0.,12.0,0.,12.0
1979-07-02 03:06:18.420 ,7,0,0.,12.0,0.,12.0,0.,12.0,0.,12.0
1979-07-02 03:06:30.420 ,6,0,0.,12.0,0.,12.0,0.,12.0,0.,12.0
1979-07-02 03:06:42.420 ,6,0,0.,12.0,0.,12.0,0.,12.0,0.,12.0
1979-07-02 03:06:54.420 ,6,0,0.,12.0,0.,12.0,0.,12.0,0.,12.0
1979-07-02 03:07:06.420 ,6,0,0.,12.0,0.,12.0,0.,12.0,0.,12.0
1979-07-02 03:07:18.420 ,5,0,0.,12.0,0.,12.0,0.,12.0,0.,12.0
1979-07-02 03:07:30.420 ,5,0,0.,12.0,0.,12.0,0.,12.0,0.,12.0
1979-07-02 03:07:42.420 ,5,0,0.,12.0,0.,12.0,0.,12.0,0.,12.0
1979-07-02 03:07:54.420 ,5,0,0.,12.0,0.,12.0,0.,12.0,0.,12.0
1979-07-02 03:08:06.420 ,4,0,0.,12.0,0.,12.0,0.,12.0,0.,12.0
1979-07-02 03:08:18.420 ,4,0,0.,12.0,0.,12.0,0.,12.0,0.,12.0
1979-07-02 03:08:30.420 ,4,0,0.,12.0,0.,12.0,0.,12.0,0.,12.0
1979-07-02 03:08:42.420 ,4,0,0.,12.0,0.,12.0,0.,12.0,0.,12.0
1979-07-02 03:08:54.420 ,3,0,0.,12.0,0.,12.0,0.,12.0,0.,12.0
1979-07-02 03:09:06.420 ,3,0,0.,12.0,0.,12.0,0.,12.0,0.,12.0
1979-07-02 03:09:18.420 ,3,0,0.,12.0,0.,12.0,0.,12.0,0.,12.0
1979-07-02 03:09:30.420 ,3,0,0.,12.0,0.,12.0,0.,12.0,0.,12.0
1979-07-02 03:09:42.420 ,2,0,0.,12.0,0.,12.0,0.,12.0,0.,12.0
1979-07-02 03:09:54.420 ,2,0,0.,12.0,0.,12.0,0.,12.0,0.,12.0
1979-07-02 03:10:06.420 ,2,0,0.,12.0,0.,12.0,0.,12.0,0.,12.0
1979-07-02 03:10:18.420 ,2,0,0.,12.0,0.,12.0,0.,12.0,0.,12.0
1979-07-02 03:10:30.420 ,1,0,0.,12.0,0.,12.0,0.,12.0,0.,12.0
1979-07-02 03:10:42.420 ,1,0,0.,12.0,0.,12.0,0.,12.0,0.,12.0
1979-07-02 03:10:54.420 ,1,0,0.,12.0,0.,12.0,0.,12.0,0.,12.0
1979-07-02 03:11:06.420 ,1,0,0.,12.0,0.,12.0,0.,12.0,0.,12.0
1979-07-02 03:11:18.420 ,0,0,0.,12.0,0.,12.0,0.,12.0,0.,12.0
1979-07-02 03:11:30.420 ,0,0,0.,12.0,0.,12.0,0.,12.0,0.,12.0
1979-07-02 03:11:42.420 ,0,0,0.,12.0,0.,12.0,0.,12.0,0.,12.0
1979-07-02 03:11:54.420 ,0,0,0.,12.0,0.,12.0,0.,12.0,0.,12.0
1979-07-02 03:12:06.420 ,0,0,0.,12.0,0.,12.0,0.,12.0,0.,12.0
1979-07-02 03:12:18.420 ,0,0,0.,12.0,0.,12.0,0.,12.0,0.,12.0
1979-07-02 03:12:30.420 ,0,0,0.,12.0,0.,12.0,0.,12.0,0.,12.0
1979-07-02 03:12:42.420 ,0,0,0.,12.0,0.,12.0,0.,12.0,0.,12.0
1979-07-02 03:12:54.420 ,1,0,1.,12.0,0.,12.0,0.,12.0,0.,12.0
1979-07-02 03:13:06.420 ,1,0,0.,12.0,0.,12.0,0.,12.0,0.,12.0
1979-07-02 03:13:18.420 ,1,0,0.,12.0,0.,12.0,0.,12.0,0.,12.0
1979-07-02 03:13:30.420 ,1,0,0.,12.0,0.,12.0,0.,12.0,0.,12.0
1979-07-02 03:13:42.420 ,2,0,0.,12.0,0.,12.0,0.,12.0,0.,12.0
1979-07-02 03:13:54.420 ,2,0,0.,12.0,0.,12.0,0.,12.0,0.,12.0
1979-07-02 03:14:06.420 ,2,0,0.,12.0,0.,12.0,0.,12.0,0.,12.0
1979-07-02 03:14:18.420 ,2,0,0.,12.0,0.,12.0,0.,12.0,0.,12.0
1979-07-02 03:14:30.420 ,3,0,0.,12.0,0.,12.0,0.,12.0,0.,12.0
1979-07-02 03:14:42.420 ,3,0,0.,12.0,0.,12.0,0.,12.0,0.,12.0
1979-07-02 03:14:54.420 ,3,0,0.,12.0,0.,12.0,0.,12.0,0.,12.0
1979-07-02 03:15:06.420 ,3,0,0.,12.0,0.,12.0,0.,12.0,0.,12.0
1979-07-02 03:15:18.420 ,4,0,0.,12.0,0.,12.0,0.,12.0,0.,12.0
1979-07-02 03:15:30.420 ,4,0,0.,12.0,0.,12.0,0.,12.0,0.,12.0
1979-07-02 03:15:42.420 ,4,0,0.,12.0,0.,12.0,0.,12.0,0.,12.0
1979-07-02 03:15:54.420 ,4,0,0.,12.0,0.,12.0,0.,12.0,0.,12.0
1979-07-02 03:16:06.420 ,5,0,0.,12.0,0.,12.0,0.,12.0,0.,12.0
1979-07-02 03:16:18.420 ,5,0,0.,12.0,0.,12.0,0.,12.0,0.,12.0
1979-07-02 03:16:30.420 ,5,0,0.,12.0,0.,12.0,0.,12.0,0.,12.0
1979-07-02 03:16:42.420 ,5,0,0.,12.0,0.,12.0,0.,12.0,0.,12.0
1979-07-02 03:16:54.420 ,6,0,0.,12.0,0.,12.0,0.,12.0,0.,12.0
1979-07-02 03:17:06.420 ,6,0,0.,12.0,0.,12.0,0.,12.0,0.,12.0
1979-07-02 03:17:18.420 ,6,0,0.,12.0,0.,12.0,0.,12.0,0.,12.0
1979-07-02 03:17:30.420 ,6,0,0.,12.0,0.,12.0,0.,12.0,0.,12.0
1979-07-02 03:17:42.420 ,7,0,0.,12.0,0.,12.0,0.,12.0,0.,12.0
1979-07-02 03:17:54.420 ,7,0,0.,12.0,0.,12.0,0.,12.0,0.,12.0
1979-07-02 03:18:06.420 ,7,0,0.,12.0,0.,12.0,0.,12.0,0.,12.0
1979-07-02 03:18:18.420 ,7,0,0.,12.0,0.,12.0,0.,12.0,0.,12.0
1979-07-02 03:18:30.420 ,7,0,0.,12.0,0.,12.0,0.,12.0,0.,12.0
1979-07-02 03:18:42.420 ,7,0,0.,12.0,0.,12.0,0.,12.0,0.,12.0
1979-07-02 03:18:54.420 ,7,0,0.,12.0,0.,12.0,0.,12.0,0.,12.0
1979-07-02 03:19:06.420 ,7,0,0.,12.0,0.,12.0,0.,12.0,0.,12.0
1979-07-02 03:19:18.420 ,6,0,0.,12.0,0.,12.0,0.,12.0,0.,12.0
1979-07-02 03:19:30.420 ,6,0,0.,12.0,0.,12.0,0.,12.0,0.,12.0
1979-07-02 03:19:42.420 ,6,0,0.,12.0,0.,12.0,0.,12.0,0.,12.0
1979-07-02 03:19:54.420 ,6,0,0.,12.0,0.,12.0,0.,12.0,0.,12.0
1979-07-02 03:20:06.420 ,5,0,0.,12.0,0.,12.0,0.,12.0,0.,12.0
1979-07-02 03:20:18.420 ,5,0,0.,12.0,0.,12.0,0.,12.0,0.,12.0
1979-07-02 03:20:30.420 ,5,0,0.,12.0,0.,12.0,0.,12.0,0.,12.0
1979-07-02 03:20:42.420 ,5,0,0.,12.0,0.,12.0,0.,12.0,0.,12.0
1979-07-02 03:20:54.420 ,4,0,0.,12.0,0.,12.0,0.,12.0,0.,12.0
1979-07-02 03:21:06.420 ,4,0,0.,12.0,0.,12.0,0.,12.0,0.,12.0
1979-07-02 03:21:18.420 ,4,0,0.,12.0,0.,12.0,0.,12.0,0.,12.0
1979-07-02 03:21:30.420 ,4,0,0.,12.0,0.,12.0,0.,12.0,0.,12.0
1979-07-02 03:21:42.420 ,3,0,0.,12.0,0.,12.0,0.,12.0,0.,12.0
1979-07-02 03:21:54.420 ,3,0,0.,12.0,0.,12.0,0.,12.0,0.,12.0
1979-07-02 03:22:06.420 ,3,0,0.,12.0,0.,12.0,0.,12.0,0.,12.0
1979-07-02 03:22:18.420 ,3,0,0.,12.0,0.,12.0,0.,12.0,0.,12.0
1979-07-02 03:22:30.420 ,2,0,0.,12.0,0.,12.0,0.,12.0,0.,12.0
1979-07-02 03:22:42.420 ,2,0,0.,12.0,0.,12.0,0.,12.0,0.,12.0
1979-07-02 03:22:54.420 ,2,0,0.,12.0,0.,12.0,0.,12.0,0.,12.0
1979-07-02 03:23:06.420 ,2,0,0.,12.0,0.,12.0,0.,12.0,0.,12.0
1979-07-02 03:23:18.420 ,1,0,0.,12.0,0.,12.0,0.,12.0,0.,12.0
1979-07-02 03:23:30.420 ,1,0,0.,12.0,0.,12.0,0.,12.0,0.,12.0
1979-07-02 03:23:42.420 ,1,0,0.,12.0,0.,12.0,0.,12.0,0.,12.0
1979-07-02 03:23:54.420 ,1,0,0.,12.0,0.,12.0,0.,12.0,0.,12.0
1979-07-02 03:24:06.420 ,0,0,0.,12.0,0.,12.0,0.,12.0,0.,12.0
1979-07-02 03:24:18.420 ,0,0,0.,12.0,0.,12.0,0.,12.0,0.,12.0
1979-07-02 03:24:30.420 ,0,0,0.,12.0,0.,12.0,0.,12.0,0.,12.0
1979-07-02 03:24:42.420 ,0,0,0.,12.0,0.,12.0,0.,12.0,0.,12.0
1979-07-02 03:24:54.420 ,0,0,1.,12.0,0.,12.0,0.,12.0,0.,12.0
1979-07-02 03:25:06.420 ,0,0,0.,12.0,0.,12.0,0.,12.0,0.,12.0
1979-07-02 03:25:18.420 ,0,0,0.,12.0,0.,12.0,0.,12.0,0.,12.0
1979-07-02 03:25:30.420 ,0,0,0.,12.0,0.,12.0,0.,12.0,0.,12.0
1979-07-02 03:25:42.420 ,1,0,0.,12.0,0.,12.0,0.,12.0,0.,12.0
1979-07-02 03:25:54.420 ,1,0,0.,12.0,0.,12.0,0.,12.0,0.,12.0
1979-07-02 03:26:06.420 ,1,0,0.,12.0,0.,12.0,0.,12.0,0.,12.0
1979-07-02 03:26:18.420 ,1,0,0.,12.0,0.,12.0,0.,12.0,0.,12.0
1979-07-02 03:26:30.420 ,2,0,0.,12.0,0.,12.0,0.,12.0,0.,12.0
1979-07-02 03:26:42.420 ,2,0,0.,12.0,0.,12.0,0.,12.0,0.,12.0
1979-07-02 03:26:54.420 ,2,0,0.,12.0,0.,12.0,0.,12.0,0.,12.0
1979-07-02 03:27:06.420 ,2,0,0.,12.0,0.,12.0,0.,12.0,0.,12.0
1979-07-02 03:27:18.420 ,3,0,0.,12.0,0.,12.0,0.,12.0,0.,12.0
1979-07-02 03:27:30.420 ,3,0,0.,12.0,0.,12.0,0.,12.0,0.,12.0
1979-07-02 03:27:42.420 ,3,0,0.,12.0,0.,12.0,0.,12.0,0.,12.0
1979-07-02 03:27:54.420 ,3,0,0.,12.0,0.,12.0,0.,12.0,0.,12.0
1979-07-02 03:28:06.420 ,4,0,0.,12.0,0.,12.0,0.,12.0,0.,12.0
1979-07-02 03:28:18.420 ,4,0,0.,12.0,0.,12.0,0.,12.0,0.,12.0
1979-07-02 03:28:30.420 ,4,0,0.,12.0,0.,12.0,0.,12.0,0.,12.0
1979-07-02 03:28:42.420 ,4,0,0.,12.0,0.,12.0,0.,12.0,0.,12.0
1979-07-02 03:28:54.420 ,5,0,0.,12.0,0.,12.0,0.,12.0,0.,12.0
1979-07-02 03:29:06.420 ,5,0,0.,12.0,0.,12.0,0.,12.0,0.,12.0
1979-07-02 03:29:18.420 ,5,0,0.,12.0,0.,12.0,0.,12.0,0.,12.0
1979-07-02 03:29:30.420 ,5,0,0.,12.0,0.,12.0,0.,12.0,0.,12.0
1979-07-02 03:29:42.420 ,6,0,0.,12.0,0.,12.0,0.,12.0,0.,12.0
1979-07-02 03:29:54.420 ,6,0,0.,12.0,0.,12.0,0.,12.0,0.,12.0
1979-07-02 03:30:06.420 ,6,0,0.,12.0,0.,12.0,0.,12.0,0.,12.0
1979-07-02 03:30:18.420 ,6,0,0.,12.0,0.,12.0,0.,12.0,0.,12.0
1979-07-02 03:30:30.420 ,7,0,0.,12.0,0.,12.0,0.,12.0,0.,12.0
1979-07-02 03:30:42.420 ,7,0,0.,12.0,0.,12.0,0.,12.0,0.,12.0
1979-07-02 03:30:54.420 ,7,0,0.,12.0,0.,12.0,0.,12.0,0.,12.0
1979-07-02 03:31:06.420 ,7,0,0.,12.0,0.,12.0,0.,12.0,0.,12.0
1979-07-02 03:31:18.420 ,3,1,0.,12.0,0.,12.0,0.,12.0,0.,12.0
1979-07-02 03:31:30.420 ,3,1,0.,12.0,0.,12.0,0.,12.0,0.,12.0
1979-07-02 03:31:42.420 ,0,1,0.,12.0,0.,12.0,0.,12.0,0.,12.0
1979-07-02 03:31:54.420 ,0,1,0.,12.0,0.,12.0,0.,12.0,0.,12.0
1979-07-02 03:32:06.420 ,4,1,0.,12.0,0.,12.0,0.,12.0,0.,12.0
1979-07-02 03:32:18.420 ,4,1,0.,12.0,0.,12.0,0.,12.0,0.,12.0
1979-07-02 03:32:30.420 ,7,1,0.,12.0,0.,12.0,0.,12.0,0.,12.0
1979-07-02 03:32:42.420 ,7,1,0.,12.0,0.,12.0,0.,12.0,0.,12.0
1979-07-02 03:32:54.420 ,3,1,0.,12.0,0.,12.0,0.,12.0,0.,12.0
1979-07-02 03:33:06.420 ,3,1,0.,12.0,0.,12.0,0.,12.0,0.,12.0
1979-07-02 03:33:18.420 ,0,1,0.,12.0,0.,12.0,0.,12.0,0.,12.0
1979-07-02 03:33:30.420 ,0,1,0.,12.0,0.,12.0,0.,12.0,0.,12.0
1979-07-02 03:33:42.420 ,4,1,0.,12.0,0.,12.0,0.,12.0,0.,12.0
1979-07-02 03:33:54.420 ,4,1,0.,12.0,0.,12.0,0.,12.0,0.,12.0
1979-07-02 03:34:06.420 ,7,1,0.,12.0,0.,12.0,0.,12.0,0.,12.0
1979-07-02 03:34:18.420 ,7,1,0.,12.0,0.,12.0,0.,12.0,0.,12.0
1979-07-02 03:34:30.420 ,3,1,0.,12.0,0.,12.0,0.,12.0,0.,12.0
1979-07-02 03:34:42.420 ,3,1,0.,12.0,0.,12.0,0.,12.0,0.,12.0
1979-07-02 03:34:54.420 ,0,1,0.,12.0,0.,12.0,0.,12.0,0.,12.0
1979-07-02 03:35:06.420 ,0,1,0.,12.0,0.,12.0,0.,12.0,0.,12.0
1979-07-02 03:35:18.420 ,4,1,0.,12.0,0.,12.0,0.,12.0,0.,12.0
1979-07-02 03:35:30.420 ,4,1,0.,12.0,0.,12.0,0.,12.0,0.,12.0
1979-07-02 03:35:42.420 ,7,1,0.,12.0,0.,12.0,0.,12.0,0.,12.0
1979-07-02 03:35:54.420 ,7,1,0.,12.0,0.,12.0,0.,12.0,0.,12.0
1979-07-02 03:36:06.420 ,3,1,0.,12.0,0.,12.0,0.,12.0,0.,12.0
1979-07-02 03:36:18.420 ,3,1,0.,12.0,0.,12.0,0.,12.0,0.,12.0
1979-07-02 03:36:30.420 ,0,1,0.,12.0,0.,12.0,0.,12.0,0.,12.0
1979-07-02 03:36:42.420 ,0,1,0.,12.0,0.,12.0,0.,12.0,0.,12.0
1979-07-02 03:36:54.420 ,4,1,0.,12.0,0.,12.0,0.,12.0,0.,12.0
1979-07-02 03:37:06.420 ,4,1,0.,12.0,0.,12.0,0.,12.0,0.,12.0
1979-07-02 03:37:18.420 ,7,1,0.,12.0,0.,12.0,0.,12.0,0.,12.0
1979-07-02 03:37:30.420 ,7,1,0.,12.0,0.,12.0,0.,12.0,0.,12.0
1979-07-02 03:37:42.420 ,3,1,0.,12.0,0.,12.0,0.,12.0,0.,12.0
1979-07-02 03:37:54.420 ,3,1,0.,12.0,0.,12.0,0.,12.0,0.,12.0
1979-07-02 03:38:06.420 ,0,1,0.,12.0,0.,12.0,0.,12.0,0.,12.0
1979-07-02 03:38:18.420 ,0,1,0.,12.0,0.,12.0,0.,12.0,0.,12.0
1979-07-02 03:38:30.420 ,4,1,0.,12.0,0.,12.0,0.,12.0,0.,12.0
1979-07-02 03:38:42.420 ,4,1,0.,12.0,0.,12.0,0.,12.0,0.,12.0
1979-07-02 03:38:54.420 ,7,1,0.,12.0,0.,12.0,0.,12.0,0.,12.0
1979-07-02 03:39:06.420 ,7,1,0.,12.0,0.,12.0,0.,12.0,0.,12.0
1979-07-02 03:39:18.420 ,3,1,0.,12.0,0.,12.0,0.,12.0,0.,12.0
1979-07-02 03:39:30.420 ,3,1,0.,12.0,0.,12.0,0.,12.0,0.,12.0
1979-07-02 03:39:42.420 ,0,1,0.,12.0,0.,12.0,0.,12.0,0.,12.0
1979-07-02 03:39:54.420 ,0,1,0.,12.0,0.,12.0,0.,12.0,0.,12.0
1979-07-02 03:40:06.420 ,4,1,0.,12.0,0.,12.0,0.,12.0,0.,12.0
1979-07-02 03:40:18.420 ,4,1,0.,12.0,0.,12.0,0.,12.0,0.,12.0
1979-07-02 03:40:30.420 ,7,1,0.,12.0,0.,12.0,0.,12.0,0.,12.0
1979-07-02 03:40:42.420 ,7,1,0.,12.0,0.,12.0,0.,12.0,0.,12.0
1979-07-02 03:40:54.420 ,3,1,0.,12.0,0.,12.0,0.,12.0,0.,12.0
1979-07-02 03:41:06.420 ,3,1,0.,12.0,0.,12.0,0.,12.0,0.,12.0
1979-07-02 03:41:18.420 ,0,1,0.,12.0,0.,12.0,0.,12.0,0.,12.0
1979-07-02 03:41:30.420 ,0,1,0.,12.0,0.,12.0,0.,12.0,0.,12.0
1979-07-02 03:41:42.420 ,0,0,0.,12.0,0.,12.0,0.,12.0,0.,12.0
1979-07-02 03:41:54.420 ,0,0,0.,12.0,0.,12.0,0.,12.0,0.,12.0
1979-07-02 03:42:06.420 ,0,0,1.,12.0,0.,12.0,0.,12.0,0.,12.0
1979-07-02 03:42:18.420 ,0,0,0.,12.0,0.,12.0,0.,12.0,0.,12.0
1979-07-02 03:42:30.420 ,5,0,0.,12.0,0.,12.0,0.,12.0,0.,12.0
1979-07-02 03:42:42.420 ,5,0,0.,12.0,0.,12.0,0.,12.0,0.,12.0
1979-07-02 03:42:54.420 ,5,0,0.,12.0,0.,12.0,0.,12.0,0.,12.0
1979-07-02 03:43:06.420 ,5,0,0.,12.0,0.,12.0,0.,12.0,0.,12.0
1979-07-02 03:43:18.420 ,4,0,0.,12.0,0.,12.0,0.,12.0,0.,12.0
1979-07-02 03:43:30.420 ,4,0,0.,12.0,0.,12.0,0.,12.0,0.,12.0
1979-07-02 03:43:42.420 ,4,0,0.,12.0,0.,12.0,0.,12.0,0.,12.0
1979-07-02 03:43:54.420 ,4,0,0.,12.0,0.,12.0,0.,12.0,0.,12.0
1979-07-02 03:44:06.420 ,3,0,0.,12.0,0.,12.0,0.,12.0,0.,12.0
1979-07-02 03:44:18.420 ,3,0,0.,12.0,0.,12.0,0.,12.0,0.,12.0
1979-07-02 03:44:30.420 ,3,0,0.,12.0,0.,12.0,0.,12.0,0.,12.0
1979-07-02 03:44:42.420 ,3,0,0.,12.0,0.,12.0,0.,12.0,0.,12.0
1979-07-02 03:44:54.420 ,2,0,0.,12.0,0.,12.0,0.,12.0,0.,12.0
1979-07-02 03:45:06.420 ,2,0,0.,12.0,0.,12.0,0.,12.0,0.,12.0
1979-07-02 03:45:18.420 ,2,0,0.,12.0,0.,12.0,0.,12.0,0.,12.0
1979-07-02 03:45:30.420 ,2,0,0.,12.0,0.,12.0,0.,12.0,0.,12.0
1979-07-02 03:45:42.420 ,1,0,0.,12.0,0.,12.0,0.,12.0,0.,12.0
1979-07-02 03:45:54.420 ,1,0,0.,12.0,0.,12.0,0.,12.0,0.,12.0
1979-07-02 03:46:06.420 ,1,0,0.,12.0,0.,12.0,0.,12.0,0.,12.0
1979-07-02 03:46:18.420 ,1,0,0.,12.0,0.,12.0,0.,12.0,0.,12.0
1979-07-02 03:46:30.420 ,0,0,0.,12.0,0.,12.0,0.,12.0,0.,12.0
1979-07-02 03:46:42.420 ,0,0,0.,12.0,0.,12.0,0.,12.0,0.,12.0
1979-07-02 03:46:54.420 ,0,0,0.,12.0,0.,12.0,0.,12.0,0.,12.0
1979-07-02 03:47:06.420 ,0,0,0.,12.0,0.,12.0,0.,12.0,0.,12.0
1979-07-02 03:47:18.420 ,0,0,0.,12.0,0.,12.0,0.,12.0,0.,12.0
1979-07-02 03:47:30.420 ,0,0,0.,12.0,0.,12.0,0.,12.0,0.,12.0
1979-07-02 03:47:42.420 ,0,0,0.,12.0,0.,12.0,0.,12.0,0.,12.0
1979-07-02 03:47:54.420 ,0,0,0.,12.0,0.,12.0,0.,12.0,0.,12.0
1979-07-02 03:48:06.420 ,1,0,0.,12.0,0.,12.0,0.,12.0,0.,12.0
1979-07-02 03:48:18.420 ,1,0,0.,12.0,0.,12.0,0.,12.0,0.,12.0
1979-07-02 03:48:30.420 ,1,0,0.,12.0,0.,12.0,0.,12.0,0.,12.0
1979-07-02 03:48:42.420 ,1,0,0.,12.0,0.,12.0,0.,12.0,0.,12.0
1979-07-02 03:48:54.420 ,2,0,0.,12.0,0.,12.0,0.,12.0,0.,12.0
1979-07-02 03:49:06.420 ,2,0,0.,12.0,0.,12.0,0.,12.0,0.,12.0
1979-07-02 03:49:18.420 ,2,0,0.,12.0,0.,12.0,0.,12.0,0.,12.0
1979-07-02 03:49:30.420 ,2,0,1.,12.0,0.,12.0,0.,12.0,0.,12.0
1979-07-02 03:49:42.420 ,3,0,0.,12.0,0.,12.0,0.,12.0,0.,12.0
1979-07-02 03:49:54.420 ,3,0,0.,12.0,0.,12.0,0.,12.0,0.,12.0
1979-07-02 03:50:06.420 ,3,0,0.,12.0,0.,12.0,0.,12.0,0.,12.0
1979-07-02 03:50:18.420 ,3,0,0.,12.0,0.,12.0,0.,12.0,0.,12.0
1979-07-02 03:50:30.420 ,4,0,0.,12.0,0.,12.0,0.,12.0,0.,12.0
1979-07-02 03:50:42.420 ,4,0,0.,12.0,0.,12.0,0.,12.0,0.,12.0
1979-07-02 03:50:54.420 ,4,0,0.,12.0,0.,12.0,0.,12.0,0.,12.0
1979-07-02 03:51:06.420 ,4,0,0.,12.0,0.,12.0,0.,12.0,0.,12.0
1979-07-02 03:51:18.420 ,5,0,0.,12.0,0.,12.0,0.,12.0,0.,12.0
1979-07-02 03:51:30.420 ,5,0,0.,12.0,0.,12.0,0.,12.0,0.,12.0
1979-07-02 03:51:42.420 ,5,0,0.,12.0,0.,12.0,0.,12.0,0.,12.0
1979-07-02 03:51:54.420 ,5,0,0.,12.0,0.,12.0,0.,12.0,0.,12.0
1979-07-02 03:52:06.420 ,6,0,0.,12.0,0.,12.0,0.,12.0,0.,12.0
1979-07-02 03:52:18.420 ,6,0,0.,12.0,0.,12.0,0.,12.0,0.,12.0
1979-07-02 03:52:30.420 ,6,0,0.,12.0,0.,12.0,0.,12.0,0.,12.0
1979-07-02 03:52:42.420 ,6,0,0.,12.0,0.,12.0,0.,12.0,0.,12.0
1979-07-02 03:52:54.420 ,7,0,0.,12.0,0.,12.0,0.,12.0,0.,12.0
1979-07-02 03:53:06.420 ,7,0,0.,12.0,0.,12.0,0.,12.0,0.,12.0
1979-07-02 03:53:18.420 ,7,0,0.,12.0,0.,12.0,0.,12.0,0.,12.0
1979-07-02 03:53:30.420 ,7,0,0.,12.0,0.,12.0,0.,12.0,0.,12.0
1979-07-02 03:53:42.420 ,7,0,0.,12.0,0.,12.0,0.,12.0,0.,12.0
1979-07-02 03:53:54.420 ,7,0,0.,12.0,0.,12.0,0.,12.0,0.,12.0
1979-07-02 03:54:06.420 ,7,0,0.,12.0,0.,12.0,0.,12.0,0.,12.0
1979-07-02 03:54:18.420 ,7,0,0.,12.0,0.,12.0,0.,12.0,0.,12.0
1979-07-02 03:54:30.420 ,6,0,0.,12.0,0.,12.0,0.,12.0,0.,12.0
1979-07-02 03:54:42.420 ,6,0,0.,12.0,0.,12.0,0.,12.0,0.,12.0
1979-07-02 03:54:54.420 ,6,0,0.,12.0,0.,12.0,0.,12.0,0.,12.0
1979-07-02 03:55:06.420 ,6,0,0.,12.0,0.,12.0,0.,12.0,0.,12.0
1979-07-02 03:55:18.420 ,5,0,0.,12.0,0.,12.0,0.,12.0,0.,12.0
1979-07-02 03:55:30.420 ,5,0,0.,12.0,0.,12.0,0.,12.0,0.,12.0
1979-07-02 03:55:42.420 ,5,0,0.,12.0,0.,12.0,0.,12.0,0.,12.0
1979-07-02 03:55:54.420 ,5,0,0.,12.0,0.,12.0,0.,12.0,0.,12.0
1979-07-02 03:56:06.420 ,4,0,0.,12.0,0.,12.0,0.,12.0,0.,12.0
1979-07-02 03:56:18.420 ,4,0,0.,12.0,0.,12.0,0.,12.0,0.,12.0
1979-07-02 03:56:30.420 ,4,0,0.,12.0,0.,12.0,0.,12.0,0.,12.0
1979-07-02 03:56:42.420 ,4,0,0.,12.0,0.,12.0,0.,12.0,0.,12.0
1979-07-02 03:56:54.420 ,3,0,0.,12.0,0.,12.0,0.,12.0,0.,12.0
1979-07-02 03:57:06.420 ,3,0,0.,12.0,0.,12.0,0.,12.0,0.,12.0
1979-07-02 03:57:18.420 ,3,0,0.,12.0,0.,12.0,0.,12.0,0.,12.0
1979-07-02 03:57:30.420 ,3,0,0.,12.0,0.,12.0,0.,12.0,0.,12.0
1979-07-02 03:57:42.420 ,2,0,0.,12.0,0.,12.0,0.,12.0,0.,12.0
1979-07-02 03:57:54.420 ,2,0,0.,12.0,0.,12.0,0.,12.0,0.,12.0
1979-07-02 03:58:06.420 ,2,0,0.,12.0,0.,12.0,0.,12.0,0.,12.0
1979-07-02 03:58:18.420 ,2,0,0.,12.0,0.,12.0,0.,12.0,0.,12.0
1979-07-02 03:58:30.420 ,1,0,0.,12.0,0.,12.0,0.,12.0,0.,12.0
1979-07-02 03:58:42.420 ,1,0,0.,12.0,0.,12.0,0.,12.0,0.,12.0
1979-07-02 03:58:54.420 ,1,0,0.,12.0,0.,12.0,0.,12.0,0.,12.0
1979-07-02 03:59:06.420 ,1,0,0.,12.0,0.,12.0,0.,12.0,0.,12.0
1979-07-02 03:59:18.420 ,0,0,0.,12.0,0.,12.0,0.,12.0,0.,12.0
1979-07-02 03:59:30.420 ,0,0,0.,12.0,0.,12.0,0.,12.0,0.,12.0
1979-07-02 03:59:42.420 ,0,0,0.,12.0,0.,12.0,0.,12.0,0.,12.0
1979-07-02 03:59:54.420 ,0,0,0.,12.0,0.,12.0,0.,12.0,0.,12.0
1979-07-02 04:00:06.420 ,0,0,0.,12.0,0.,12.0,0.,12.0,0.,12.0
1979-07-02 04:00:18.420 ,0,0,0.,12.0,0.,12.0,0.,12.0,0.,12.0
1979-07-02 04:00:30.420 ,0,0,0.,12.0,0.,12.0,0.,12.0,0.,12.0
1979-07-02 04:00:42.420 ,0,0,0.,12.0,0.,12.0,0.,12.0,0.,12.0
1979-07-02 04:00:54.420 ,1,0,0.,12.0,0.,12.0,0.,12.0,0.,12.0
1979-07-02 04:01:06.420 ,1,0,0.,12.0,0.,12.0,0.,12.0,0.,12.0
1979-07-02 04:01:18.420 ,1,0,0.,12.0,0.,12.0,0.,12.0,0.,12.0
1979-07-02 04:01:30.420 ,1,0,0.,12.0,0.,12.0,0.,12.0,0.,12.0
1979-07-02 04:01:42.420 ,2,0,0.,12.0,0.,12.0,0.,12.0,0.,12.0
1979-07-02 04:01:54.420 ,2,0,0.,12.0,0.,12.0,0.,12.0,0.,12.0
1979-07-02 04:02:06.420 ,2,0,0.,12.0,0.,12.0,0.,12.0,0.,12.0
1979-07-02 04:02:18.420 ,2,0,0.,12.0,0.,12.0,0.,12.0,0.,12.0
1979-07-02 04:02:30.410 ,3,0,0.,12.0,0.,12.0,0.,12.0,0.,12.0
1979-07-02 04:02:42.420 ,3,0,0.,12.0,0.,12.0,0.,12.0,0.,12.0
1979-07-02 04:02:54.410 ,3,0,0.,12.0,0.,12.0,0.,12.0,0.,12.0
1979-07-02 04:03:06.410 ,3,0,0.,12.0,0.,12.0,0.,12.0,0.,12.0
1979-07-02 04:03:18.410 ,4,0,0.,12.0,0.,12.0,0.,12.0,0.,12.0
1979-07-02 04:03:30.420 ,4,0,0.,12.0,0.,12.0,0.,12.0,0.,12.0
1979-07-02 04:03:42.410 ,4,0,0.,12.0,0.,12.0,0.,12.0,0.,12.0
1979-07-02 04:03:54.420 ,4,0,0.,12.0,0.,12.0,0.,12.0,0.,12.0
1979-07-02 04:04:06.410 ,5,0,0.,12.0,0.,12.0,0.,12.0,0.,12.0
1979-07-02 04:04:18.420 ,5,0,0.,12.0,0.,12.0,0.,12.0,0.,12.0
1979-07-02 04:04:30.420 ,5,0,0.,12.0,0.,12.0,0.,12.0,0.,12.0
1979-07-02 04:04:42.420 ,5,0,0.,12.0,0.,12.0,0.,12.0,0.,12.0
1979-07-02 04:04:54.420 ,6,0,0.,12.0,0.,12.0,0.,12.0,0.,12.0
1979-07-02 04:05:06.420 ,6,0,0.,12.0,0.,12.0,0.,12.0,0.,12.0
1979-07-02 04:05:18.420 ,6,0,0.,12.0,0.,12.0,0.,12.0,0.,12.0
1979-07-02 04:05:30.420 ,6,0,0.,12.0,0.,12.0,0.,12.0,0.,12.0
1979-07-02 04:05:42.420 ,7,0,0.,12.0,0.,12.0,0.,12.0,0.,12.0
1979-07-02 04:05:54.420 ,7,0,0.,12.0,0.,12.0,0.,12.0,0.,12.0
1979-07-02 04:06:06.420 ,7,0,0.,12.0,0.,12.0,0.,12.0,0.,12.0
1979-07-02 04:06:18.420 ,7,0,0.,12.0,0.,12.0,0.,12.0,0.,12.0
1979-07-02 04:06:30.420 ,7,0,0.,12.0,0.,12.0,0.,12.0,0.,12.0
1979-07-02 04:06:42.420 ,7,0,0.,12.0,0.,12.0,0.,12.0,0.,12.0
1979-07-02 04:06:54.420 ,7,0,0.,12.0,0.,12.0,0.,12.0,0.,12.0
1979-07-02 04:07:06.420 ,7,0,0.,12.0,0.,12.0,0.,12.0,0.,12.0
1979-07-02 04:07:18.420 ,6,0,0.,12.0,0.,12.0,0.,12.0,0.,12.0
1979-07-02 04:07:30.420 ,6,0,0.,12.0,0.,12.0,0.,12.0,0.,12.0
1979-07-02 04:07:42.420 ,6,0,0.,12.0,0.,12.0,0.,12.0,0.,12.0
1979-07-02 04:07:54.420 ,6,0,0.,12.0,0.,12.0,0.,12.0,0.,12.0
1979-07-02 04:08:06.420 ,5,0,0.,12.0,0.,12.0,0.,12.0,0.,12.0
1979-07-02 04:08:18.420 ,5,0,0.,12.0,0.,12.0,0.,12.0,0.,12.0
1979-07-02 04:08:30.420 ,5,0,0.,12.0,0.,12.0,0.,12.0,0.,12.0
1979-07-02 04:08:42.420 ,5,0,0.,12.0,0.,12.0,0.,12.0,0.,12.0
1979-07-02 04:08:54.410 ,4,0,0.,12.0,0.,12.0,0.,12.0,0.,12.0
1979-07-02 04:09:06.410 ,4,0,0.,12.0,0.,12.0,0.,12.0,0.,12.0
1979-07-02 04:09:18.410 ,4,0,0.,12.0,0.,12.0,0.,12.0,0.,12.0
1979-07-02 04:09:30.410 ,4,0,0.,12.0,0.,12.0,0.,12.0,0.,12.0
1979-07-02 04:09:42.410 ,3,0,0.,12.0,0.,12.0,0.,12.0,0.,12.0
1979-07-02 04:09:54.410 ,3,0,0.,12.0,0.,12.0,0.,12.0,0.,12.0
1979-07-02 04:10:06.410 ,3,0,0.,12.0,0.,12.0,0.,12.0,0.,12.0
1979-07-02 04:10:18.410 ,3,0,0.,12.0,0.,12.0,0.,12.0,0.,12.0
1979-07-02 04:10:30.410 ,2,0,0.,12.0,0.,12.0,0.,12.0,0.,12.0
1979-07-02 04:10:42.410 ,2,0,0.,12.0,0.,12.0,0.,12.0,0.,12.0
1979-07-02 04:10:54.410 ,2,0,0.,12.0,0.,12.0,0.,12.0,0.,12.0
1979-07-02 04:11:06.410 ,2,0,1.,12.0,0.,12.0,0.,12.0,0.,12.0
1979-07-02 04:11:18.410 ,1,0,0.,12.0,0.,12.0,0.,12.0,0.,12.0
1979-07-02 04:11:30.410 ,1,0,0.,12.0,0.,12.0,0.,12.0,0.,12.0
1979-07-02 04:11:42.410 ,1,0,0.,12.0,0.,12.0,0.,12.0,0.,12.0
1979-07-02 04:11:54.410 ,1,0,0.,12.0,0.,12.0,0.,12.0,0.,12.0
1979-07-02 04:12:06.410 ,0,0,0.,12.0,0.,12.0,0.,12.0,0.,12.0
1979-07-02 04:12:18.410 ,0,0,0.,12.0,0.,12.0,0.,12.0,0.,12.0
1979-07-02 04:12:30.410 ,0,0,0.,12.0,0.,12.0,0.,12.0,0.,12.0
1979-07-02 04:12:42.410 ,0,0,0.,12.0,0.,12.0,0.,12.0,0.,12.0
1979-07-02 04:12:54.410 ,0,0,0.,12.0,0.,12.0,0.,12.0,0.,12.0
1979-07-02 04:13:06.410 ,0,0,0.,12.0,0.,12.0,0.,12.0,0.,12.0
1979-07-02 04:13:18.410 ,0,0,0.,12.0,0.,12.0,0.,12.0,0.,12.0
1979-07-02 04:13:30.410 ,0,0,0.,12.0,0.,12.0,0.,12.0,0.,12.0
1979-07-02 04:13:42.410 ,1,0,0.,12.0,0.,12.0,0.,12.0,0.,12.0
1979-07-02 04:13:54.410 ,1,0,0.,12.0,0.,12.0,0.,12.0,0.,12.0
1979-07-02 04:14:06.410 ,1,0,0.,12.0,0.,12.0,0.,12.0,0.,12.0
1979-07-02 04:14:18.410 ,1,0,0.,12.0,0.,12.0,0.,12.0,0.,12.0
1979-07-02 04:14:30.410 ,2,0,0.,12.0,0.,12.0,0.,12.0,0.,12.0
1979-07-02 04:14:42.410 ,2,0,0.,12.0,0.,12.0,0.,12.0,0.,12.0
1979-07-02 04:14:54.410 ,2,0,0.,12.0,0.,12.0,0.,12.0,0.,12.0
1979-07-02 04:15:06.410 ,2,0,0.,12.0,0.,12.0,0.,12.0,0.,12.0
1979-07-02 04:15:18.410 ,3,0,0.,12.0,0.,12.0,0.,12.0,0.,12.0
1979-07-02 04:15:30.410 ,3,0,0.,12.0,0.,12.0,0.,12.0,0.,12.0
1979-07-02 04:15:42.410 ,3,0,0.,12.0,0.,12.0,0.,12.0,0.,12.0
1979-07-02 04:15:54.410 ,3,0,0.,12.0,0.,12.0,0.,12.0,0.,12.0
1979-07-02 04:16:06.410 ,4,0,0.,12.0,0.,12.0,0.,12.0,0.,12.0
1979-07-02 04:16:18.410 ,4,0,0.,12.0,0.,12.0,0.,12.0,0.,12.0
1979-07-02 04:16:30.410 ,4,0,0.,12.0,0.,12.0,0.,12.0,0.,12.0
1979-07-02 04:16:42.410 ,4,0,0.,12.0,0.,12.0,0.,12.0,0.,12.0
1979-07-02 04:16:54.410 ,5,0,0.,12.0,0.,12.0,0.,12.0,0.,12.0
1979-07-02 04:17:06.410 ,5,0,0.,12.0,0.,12.0,0.,12.0,0.,12.0
1979-07-02 04:17:18.410 ,5,0,0.,12.0,0.,12.0,0.,12.0,0.,12.0
1979-07-02 04:17:30.410 ,5,0,0.,12.0,0.,12.0,0.,12.0,0.,12.0